Location: Parkland
(50.2500°N, 113.6667°W)
Time: 09:21:23
(UTC+00:00)

ISS - Visible Passes

Search period start: 30 November 2021 00:00
Search period end: 10 December 2021 00:00
Orbit: 417 x 423 km, 51.6° (Epoch: 30 November)

Date Brightness Start Highest point End Pass type
(mag) Time Alt. Az. Time Alt. Az. Time Alt. Az.
30 Nov -3.7 01:25:47 10° W 01:29:11 68° N 01:29:50 52° ENE visible
30 Nov -0.2 03:02:41 10° WNW 03:02:49 11° WNW 03:02:49 11° WNW visible
01 Dec -3.7 00:38:34 10° W 00:41:58 67° N 00:44:34 16° E visible
01 Dec -2.1 02:15:29 10° WNW 02:17:33 34° W 02:17:33 34° W visible
02 Dec -3.8 01:28:17 10° WNW 01:31:42 87° NNE 01:32:21 56° E visible
02 Dec -0.1 03:05:19 10° W 03:05:20 10° W 03:05:20 10° W visible
03 Dec -3.8 00:41:05 10° WNW 00:44:30 75° NNE 00:47:12 15° E visible
03 Dec -1.9 02:17:59 10° W 02:20:12 31° WSW 02:20:12 31° WSW visible
04 Dec -3.2 01:30:44 10° WNW 01:34:05 56° SSW 01:35:09 36° SE visible
05 Dec -3.6 00:43:29 10° WNW 00:46:54 75° SSW 00:50:14 10° ESE visible
05 Dec -1.3 02:20:46 10° W 02:23:15 20° SW 02:23:15 20° SW visible
06 Dec -1.8 01:33:17 10° W 01:36:16 28° SW 01:38:32 14° SSE visible
07 Dec -2.4 00:45:55 10° W 00:49:08 40° SSW 00:52:20 10° SE visible
08 Dec -0.7 01:36:28 10° WSW 01:38:14 14° SW 01:39:59 10° SSW visible
09 Dec -0.9 00:48:38 10° W 00:51:10 20° SW 00:53:42 10° S visible
